GW3032 Weather Reports


time (UTC)temp
F
wind
direction
speed
knots
gust
knots
rain 1hr
in
rain 24hr
in
rain mn
in
humidity
%
barometer
mb
20260504031503 51 206 1.7 1.7 0.00 0.00 0.00 71 1013.0
20260504030959 51 269 0.0 0.0 0.00 0.00 0.00 70 1013.1
20260504030457 51 261 0.0 0.9 0.00 0.00 0.00 70 1013.2
20260504025952 51 266 0.9 0.9 0.00 0.00 0.00 70 1013.2
20260504025450 51 261 0.0 0.9 0.00 0.00 0.00 69 1013.2
20260504024946 51 268 0.0 0.9 0.00 0.00 0.00 70 1013.3
20260504024443 51 271 0.0 0.9 0.00 0.00 0.00 70 1013.2
20260504023940 51 315 0.9 1.7 0.00 0.00 0.00 69 1013.3
20260504023437 51 240 0.9 0.9 0.00 0.00 0.00 69 1013.3
20260504022932 51 254 0.9 6.1 0.00 0.00 0.00 67 1013.3
20260504022429 51 228 0.9 1.7 0.00 0.00 0.00 69 1013.2
20260504021926 51 259 0.0 0.9 0.00 0.00 0.00 69 1013.3
20260504021423 51 272 0.0 1.7 0.00 0.00 0.00 69 1013.3
20260504020920 51 255 0.9 4.3 0.00 0.00 0.00 68 1013.4
20260504020417 51 248 0.9 0.9 0.00 0.00 0.00 68 1013.4
20260504015914 51 256 0.9 1.7 0.00 0.00 0.00 68 1013.5
20260504015409 52 240 0.9 2.6 0.00 0.00 0.00 68 1013.4
20260504014906 52 263 1.7 1.7 0.00 0.00 0.00 68 1013.6
20260504014402 52 234 1.7 2.6 0.00 0.00 0.00 68 1013.5
20260504013859 52 250 0.9 1.7 0.00 0.00 0.00 67 1013.6
20260504013357 52 232 2.6 4.3 0.00 0.00 0.00 67 1013.5
20260504012853 52 245 1.7 4.3 0.00 0.00 0.00 67 1013.6
20260504012351 52 288 1.7 1.7 0.00 0.00 0.00 66 1013.7
20260504011848 52 174 2.6 4.3 0.00 0.00 0.00 66 1013.7
20260504011345 52 275 2.6 4.3 0.00 0.00 0.00 65 1013.5
20260504010841 53 283 2.6 6.1 0.00 0.00 0.00 65 1013.4
20260504010337 53 229 1.7 6.1 0.00 0.00 0.00 65 1013.5
20260504005833 53 314 0.9 5.2 0.00 0.00 0.00 64 1013.5
20260504005330 53 206 3.5 6.1 0.00 0.00 0.00 62 1013.4
20260504004828 54 84 4.3 7.8 0.00 0.00 0.00 60 1013.2
20260504004325 55 212 5.2 7.8 0.00 0.00 0.00 54 1012.9
20260504003821 55 234 4.3 7.0 0.00 0.00 0.00 51 1012.9
20260504003319 55 273 0.9 1.7 0.00 0.00 0.00 50 1012.7
20260504002815 56 256 1.7 2.6 0.00 0.00 0.00 49 1012.6
20260504002312 56 259 0.9 4.3 0.00 0.00 0.00 49 1012.7
20260504001810 56 267 1.7 2.6 0.00 0.00 0.00 47 1012.7
20260504001307 56 228 5.2 6.1 0.00 0.00 0.00 47 1012.7
20260504000804 57 190 1.7 5.2 0.00 0.00 0.00 47 1012.6
20260504000301 57 193 1.7 4.3 0.00 0.00 0.00 48 1012.7
20260503235758 57 261 0.9 4.3 0.00 0.00 0.00 47 1012.8
20260503235256 57 261 1.7 1.7 0.00 0.00 0.00 47 1012.7
20260503234753 57 49 1.7 4.3 0.00 0.00 0.00 46 1012.7
20260503234251 58 235 0.9 2.6 0.00 0.00 0.00 46 1013.0
20260503233748 58 298 1.7 4.3 0.00 0.00 0.00 45 1012.7
20260503233244 58 297 2.6 5.2 0.00 0.00 0.00 45 1012.8
20260503232741 59 202 4.3 5.2 0.00 0.00 0.00 45 1012.8
20260503232238 59 224 0.9 2.6 0.00 0.00 0.00 46 1012.8
20260503231736 59 270 2.6 4.3 0.00 0.00 0.00 44 1013.0
20260503231233 59 213 2.6 7.0 0.00 0.00 0.00 43 1013.0
20260503230728 59 272 3.5 5.2 0.00 0.00 0.00 43 1012.8
20260503230226 59 214 3.5 5.2 0.00 0.00 0.00 44 1013.0
20260503225723 59 241 2.6 7.0 0.00 0.00 0.00 43 1013.0
20260503225218 60 229 3.5 7.0 0.00 0.00 0.00 43 1013.0
20260503224715 59 188 3.5 7.0 0.00 0.00 0.00 44 1013.1
20260503224213 59 251 2.6 5.2 0.00 0.00 0.00 43 1013.1
20260503223710 60 219 2.6 6.1 0.00 0.00 0.00 42 1013.0
20260503223208 59 249 0.9 7.0 0.00 0.00 0.00 45 1013.2
20260503222704 60 182 3.5 4.3 0.00 0.00 0.00 44 1013.1
20260503222202 60 144 2.6 8.7 0.00 0.00 0.00 42 1013.3
20260503221700 60 246 3.5 4.3 0.00 0.00 0.00 43 1013.3
20260503221157 60 294 2.6 7.0 0.00 0.00 0.00 46 1013.0
20260503220654 61 305 2.6 4.3 0.00 0.00 0.00 44 1013.2
20260503220150 61 172 1.7 6.1 0.00 0.00 0.00 42 1013.2
20260503215647 61 150 2.6 7.8 0.00 0.00 0.00 44 1013.1
20260503215143 60 209 2.6 6.1 0.00 0.00 0.00 43 1013.3
20260503214642 60 245 6.1 7.8 0.00 0.00 0.00 43 1013.4
20260503214137 60 200 2.6 5.2 0.00 0.00 0.00 44 1013.1
20260503213632 60 222 1.7 4.3 0.00 0.00 0.00 44 1013.1
20260503213128 60 306 1.7 6.1 0.00 0.00 0.00 46 1013.4
20260503212626 60 228 1.7 6.1 0.00 0.00 0.00 46 1013.2
20260503212123 60 275 0.9 4.3 0.00 0.00 0.00 44 1013.3
20260503211620 61 317 6.1 9.6 0.00 0.00 0.00 42 1013.4
20260503211115 60 250 0.9 6.1 0.00 0.00 0.00 45 1013.5
20260503210607 61 224 2.6 5.2 0.00 0.00 0.00 44 1013.5
20260503205559 61 225 1.7 4.3 0.00 0.00 0.00 43 1013.5
20260503205055 60 213 3.5 7.0 0.00 0.00 0.00 43 1013.6
20260503204552 60 245 3.5 7.0 0.00 0.00 0.00 45 1013.3
20260503204049 61 322 2.6 5.2 0.00 0.00 0.00 44 1013.7
20260503203546 62 284 2.6 6.1 0.00 0.00 0.00 45 1013.5
20260503203043 61 301 2.6 6.1 0.00 0.00 0.00 44 1013.8
20260503202541 60 233 4.3 7.0 0.00 0.00 0.00 43 1013.5
20260503202034 62 243 3.5 8.7 0.00 0.00 0.00 42 1013.5
20260503201532 63 259 4.3 6.1 0.00 0.00 0.00 41 1013.5
20260503201028 62 257 3.5 7.8 0.00 0.00 0.00 42 1013.6
20260503200524 63 275 2.6 7.0 0.00 0.00 0.00 40 1014.0
20260503200021 63 221 3.5 8.7 0.00 0.00 0.00 41 1013.8
20260503195518 63 181 5.2 9.6 0.00 0.00 0.00 42 1014.1
20260503195009 62 161 4.3 6.1 0.00 0.00 0.00 42 1014.0
20260503194507 62 205 1.7 7.0 0.00 0.00 0.00 43 1014.2
20260503194006 62 268 2.6 8.7 0.00 0.00 0.00 41 1014.3
20260503193503 61 259 2.6 6.1 0.00 0.00 0.00 43 1014.2
20260503192958 62 99 2.6 7.8 0.00 0.00 0.00 42 1014.5
20260503192454 62 156 2.6 7.0 0.00 0.00 0.00 41 1014.4
20260503191949 62 215 1.7 2.6 0.00 0.00 0.00 44 1014.5
20260503191448 61 301 0.9 8.7 0.00 0.00 0.00 43 1014.6
20260503190943 61 201 1.7 4.3 0.00 0.00 0.00 44 1014.8
20260503190441 62 231 4.3 7.0 0.00 0.00 0.00 42 1014.9
20260503185939 62 199 2.6 5.2 0.00 0.00 0.00 42 1014.9
20260503185435 61 219 2.6 7.0 0.00 0.00 0.00 46 1014.9
20260503184934 61 238 5.2 7.8 0.00 0.00 0.00 44 1015.0
20260503184431 61 210 5.2 11.3 0.00 0.00 0.00 41 1014.9
20260503183927 62 196 5.2 7.8 0.00 0.00 0.00 40 1015.1
20260503183424 60 186 1.7 6.1 0.00 0.00 0.00 43 1015.1
20260503182921 61 192 1.7 5.2 0.00 0.00 0.00 46 1015.2
20260503182420 62 212 3.5 6.1 0.00 0.00 0.00 45 1015.0
20260503181917 61 197 3.5 7.8 0.00 0.00 0.00 45 1015.3
20260503181414 60 241 2.6 6.1 0.00 0.00 0.00 47 1015.3
20260503180910 61 26 3.5 6.1 0.00 0.00 0.00 47 1015.4
20260503180408 61 227 2.6 7.0 0.00 0.00 0.00 42 1015.4
20260503175904 61 279 2.6 7.0 0.00 0.00 0.00 46 1015.6
20260503175403 60 269 3.5 6.1 0.00 0.00 0.00 50 1015.6
20260503174858 61 264 5.2 7.0 0.00 0.00 0.00 47 1015.5
20260503174356 61 55 2.6 5.2 0.00 0.00 0.00 49 1015.8
20260503173851 60 218 2.6 7.8 0.00 0.00 0.00 46 1015.7
20260503173348 60 279 4.3 7.0 0.00 0.00 0.00 49 1015.8
20260503172844 59 223 4.3 7.0 0.00 0.00 0.00 47 1015.9
20260503172342 60 140 3.5 7.0 0.00 0.00 0.00 51 1016.0
20260503171838 60 280 2.6 7.8 0.00 0.00 0.00 50 1015.9
20260503171335 59 276 1.7 7.0 0.00 0.00 0.00 49 1016.3
20260503170832 59 207 1.7 9.6 0.00 0.00 0.00 50 1016.3
20260503170329 59 290 5.2 7.0 0.00 0.00 0.00 49 1016.4
20260503150721 54 196 4.3 5.2 0.00 0.00 0.00 54 1016.9
20260503150217 53 333 0.0 6.1 0.00 0.00 0.00 52 1017.0
20260503140142 49 282 0.9 6.1 0.00 0.00 0.00 55 1017.4
20260503131111 46 289 0.0 4.3 0.00 0.00 0.00 62 1017.7
20260503130609 45 258 0.9 2.6 0.00 0.00 0.00 62 1017.9
20260503130106 45 226 1.7 4.3 0.00 0.00 0.00 62 1017.8
20260503110459 36 227 0.9 1.7 0.00 0.00 0.00 83 1017.5
20260503090344 36 269 0.0 0.9 0.00 0.00 0.00 85 1017.0
20260503081312 37 252 0.9 0.9 0.00 0.00 0.00 86 1017.2
20260503080808 37 262 0.9 0.9 0.00 0.00 0.00 87 1017.0
20260503080305 37 266 0.0 4.3 0.00 0.00 0.00 86 1017.1
20260503072741 37 279 0.0 0.9 0.00 0.00 0.00 89 1017.1
20260503072238 37 284 0.0 0.9 0.00 0.00 0.00 89 1017.1
20260503071734 37 275 0.0 0.9 0.00 0.00 0.00 89 1017.2
20260503071231 37 259 0.0 1.7 0.00 0.00 0.00 89 1017.1
20260503070728 37 275 0.0 0.9 0.00 0.00 0.00 90 1017.2
20260503070226 37 266 0.0 0.9 0.00 0.00 0.00 90 1017.3
20260503060145 37 264 0.0 0.9 0.00 0.00 0.00 91 1017.4
20260503054632 37 266 0.0 0.9 0.00 0.00 0.00 91 1017.5
20260503054129 38 267 0.0 0.9 0.00 0.00 0.00 91 1017.4
20260503053627 38 267 0.0 0.9 0.00 0.00 0.00 91 1017.5
20260503053126 38 267 0.0 0.9 0.00 0.00 0.00 90 1017.3
20260503052622 38 267 0.0 0.0 0.00 0.00 0.00 90 1017.3
20260503052118 38 270 0.0 0.0 0.00 0.00 0.00 91 1017.6
20260503051614 38 270 0.0 0.0 0.00 0.00 0.00 90 1017.4
20260503051112 38 270 0.0 0.0 0.00 0.00 0.00 90 1017.4
20260503050608 38 270 0.0 0.9 0.00 0.00 0.00 90 1017.5
20260503050105 38 270 0.0 0.9 0.00 0.00 0.00 91 1017.6
20260503045602 38 270 0.0 0.0 0.00 0.00 0.00 91 1017.6
20260503045059 38 270 0.0 0.0 0.00 0.00 0.00 90 1017.5
20260503044555 38 270 0.0 0.0 0.00 0.00 0.00 89 1017.5
20260503044054 39 270 0.0 0.0 0.00 0.00 0.00 88 1017.6
20260503043549 39 270 0.0 0.0 0.00 0.00 0.00 87 1017.4
20260503043046 39 270 0.0 0.0 0.00 0.00 0.00 86 1017.5
20260503042543 40 270 0.0 0.0 0.00 0.00 0.00 85 1017.5
20260503042039 40 270 0.0 0.0 0.00 0.00 0.00 85 1017.5
20260503041536 40 270 0.0 0.9 0.00 0.00 0.00 85 1017.5
20260503041034 40 270 0.0 0.0 0.00 0.00 0.00 85 1017.8
20260503040531 40 270 0.0 0.0 0.00 0.00 0.00 84 1017.7
20260503040028 41 270 0.0 0.0 0.00 0.11 0.11 85 1017.8
20260503035525 41 270 0.0 0.0 0.00 0.11 0.11 85 1017.8
20260503035023 41 264 0.0 1.7 0.00 0.11 0.11 84 1017.7
20260503034520 41 270 0.0 0.9 0.00 0.11 0.11 84 1017.6
20260503034016 40 270 0.0 0.0 0.00 0.11 0.11 84 1017.9
20260503033514 41 270 0.0 0.0 0.00 0.11 0.11 85 1017.6
20260503033012 41 270 0.0 0.9 0.00 0.11 0.11 84 1017.9
20260503032510 41 270 0.0 0.9 0.00 0.11 0.11 85 1017.7
20260503032008 41 270 0.0 0.0 0.00 0.11 0.11 84 1017.7